Location: Red Bud (historical)
(37.7759°N, 88.4053°W)
Time: 22:07:06
(UTC+00:00)

Nauka - Pass Details

Date: 23 September 2021
Orbit: 418 x 423 km, 51.6° (Epoch: 21 October)

Event Time Altitude Azimuth Distance (km) Brightness Sun altitude
Rises 01:04:28 0° 290° (WNW) 2,360 ? -15.4°
Reaches altitude 10° 01:08:09 10° 332° (NNW) 1,499 ? -16.1°
Maximum altitude 01:08:55 11° 345° (NNW) 1,465 ? -16.3°
Drops below altitude 10° 01:09:41 10° 358° (N) 1,501 ? -16.4°
Enters shadow 01:11:49 - 27° (NNE) 1,904 ? -16.9°
